SCP
0 0 0 0 0 0 0 0 0 0 0 0 0 0 0 0 0 0 0 0 0 0 0 0 0 0 0
0 0 0 0 0 0 0 0 0 0 0 0 0 0 0 0 0 0 0 0 0 0 0 0 0 0 0
0 0 0 0 0 0 0 0 0 0 0 0 0 0 0 0 0 0 0 0 0 0 0 0 0 0 0
0 0 0 0 0 0 0 0 0 0 0 0 0 0 0 0 0 0 0 0 0 0 0 0 0 0 0
0 0 0 0 0 0 0 1 1 0 0 0 0 0 0 0 0 0 0 0 0 0 0 0 0 0 0
0 0 0 0 0 0 0 0 0 1 1 0 0 0 0 0 0 0 0 0 0 0 0 0 0 0 0
0 0 0 0 0 0 0 0 0 0 1 1 0 0 0 0 0 0 0 0 0 0 0 0 0 0 0
0 0 0 0 0 0 0 0 0 0 0 1 0 1 0 0 0 0 0 0 0 0 0 0 0 0 0
0 0 0 0 0 0 0 0 0 0 0 0 0 0 0 0 0 0 0 0 0 0 0 0 0 0 0
0 0 0 0 0 0 0 0 0 0 0 0 0 0 0 1 0 0 0 0 0 0 0 0 0 0 0
0 0 0 0 0 0 0 0 0 0 0 0 0 0 0 1 0 0 0 0 0 0 0 0 0 0 0
0 0 0 0 0 0 0 0 0 0 0 0 0 0 0 0 0 0 0 0 0 0 0 0 0 0 0
0 0 0 0 0 0 0 0 0 0 0 0 0 0 0 0 0 0 0 0 0 0 0 0 0 0 0
0 0 0 0 0 0 0 0 0 0 0 0 0 0 0 1 0 0 0 0 0 0 0 0 0 0 0
0 0 0 0 0 0 0 0 0 0 0 0 0 0 0 0 0 0 0 0 0 0 0 0 0 0 0
0 0 0 0 0 0 0 0 0 0 0 0 0 0 0 1 0 0 0 0 0 0 0 0 0 0 0
Wind_Speed_500mb
30 30 36 46 44 45 45 47 44 43 45 43 42 44 46 44 40 38 37 37 35 36 38 36 34 27 50
35 33 33 34 50 50 49 50 51 48 48 48 47 48 49 49 47 45 43 41 38 38 36 38 40 42 52
38 38 36 36 44 55 55 55 55 56 54 55 53 54 53 53 52 51 50 44 41 40 41 39 42 37 56
41 40 41 40 39 44 51 61 61 63 61 61 59 57 57 57 55 56 57 51 46 45 45 43 48 42 59
51 46 42 44 44 42 48 49 67 65 67 68 67 65 63 63 63 64 64 58 54 49 52 49 55 52 50
53 56 53 45 47 46 46 56 42 71 73 73 75 75 74 72 71 71 73 67 58 52 51 48 53 54 52
56 55 59 55 49 53 47 49 55 49 75 80 80 82 83 82 81 82 81 75 65 60 53 50 53 53 50
62 56 58 63 58 54 59 51 52 56 56 75 82 91 93 91 86 91 88 81 73 66 57 53 51 47 51
71 60 58 63 64 64 60 61 57 57 58 73 62 75 101 101 90 95 91 84 78 71 64 59 56 52 52
67 62 59 59 67 72 68 64 65 61 59 65 72 47 73 77 108 99 96 94 86 79 73 68 68 61 59
70 67 62 59 61 70 73 69 63 63 62 60 65 59 42 76 68 97 97 98 92 85 79 77 73 72 68
64 65 64 58 58 63 70 71 66 62 60 60 57 56 55 60 59 68 70 69 84 85 83 74 74 76 78
69 73 71 67 51 54 57 66 69 62 56 57 58 53 48 46 51 78 77 90 62 81 75 71 70 76 75
61 61 60 71 70 58 56 51 54 56 53 52 54 55 51 49 56 55 76 84 98 80 75 73 45 60 62
54 56 58 57 65 71 61 58 45 55 48 47 48 54 51 48 59 61 70 79 85 89 95 61 21 24 48
48 52 53 55 63 67 57 58 41 40 47 45 43 51 64 59 55 59 77 79 86 73 92 87 68 45 32
Wind_Direction_500mb
293 275 258 239 243 236 234 236 236 234 229 228 223 219 222 225 227 228 238 222 225 225 228 225 221 200 178
293 287 269 264 239 240 236 232 235 235 235 235 230 226 225 226 227 233 235 222 225 231 230 233 223 195 184
286 285 279 267 262 241 238 237 233 235 235 235 234 231 231 228 229 232 223 222 232 234 228 232 221 212 195
287 280 277 272 263 260 248 237 236 235 233 235 236 234 234 232 232 231 222 220 229 227 225 227 226 224 203
297 288 276 273 266 258 253 244 241 239 236 236 236 236 232 232 231 229 223 222 227 225 223 231 225 222 207
295 291 287 278 269 260 252 253 251 241 240 237 237 236 236 231 230 227 224 224 226 224 228 232 224 224 219
302 288 282 277 272 266 256 247 247 250 243 242 240 239 237 234 232 227 225 225 225 223 225 231 229 222 215
302 293 280 277 268 264 261 251 246 248 250 239 246 243 239 234 231 227 224 223 225 224 227 230 227 222 217
296 288 282 269 269 263 258 256 249 248 247 242 240 246 245 232 231 225 223 224 224 225 228 230 228 224 219
296 286 277 273 262 262 260 257 253 250 251 247 250 265 254 230 228 224 223 223 224 226 227 227 228 222 224
294 288 281 272 266 258 257 256 254 253 253 254 255 255 252 245 231 219 214 228 223 225 227 227 226 228 232
291 284 277 274 270 263 257 252 253 255 254 255 254 255 255 254 243 230 234 219 227 236 223 226 228 229 233
291 288 279 273 269 269 259 253 251 253 255 254 250 244 247 240 239 232 229 220 223 220 220 224 227 232 236
293 296 290 273 267 263 253 249 248 255 254 255 245 241 238 243 241 245 225 220 220 225 233 227 211 226 235
299 298 293 285 269 262 256 243 245 245 249 248 246 232 231 232 236 230 221 217 218 224 220 202 165 207 229
299 291 286 279 275 254 260 248 251 242 246 254 249 235 231 231 229 231 229 227 212 207 200 218 229 221 209
Wind_Speed_850mb
30 30 36 46 44 45 45 47 44 43 45 43 42 44 46 44 40 38 37 37 35 36 38 36 34 27 50
35 33 33 34 50 50 49 50 51 48 48 48 47 48 49 49 47 45 43 41 38 38 36 38 40 42 52
38 38 36 36 44 55 55 55 55 56 54 55 53 54 53 53 52 51 50 44 41 40 41 39 42 37 56
41 40 41 40 39 44 51 61 61 63 61 61 59 57 57 57 55 56 57 51 46 45 45 43 48 42 59
51 46 42 44 44 42 48 49 67 65 67 68 67 65 63 63 63 64 64 58 54 49 52 49 55 52 50
53 56 53 45 47 46 46 56 42 71 73 73 75 75 74 72 71 71 73 67 58 52 51 48 53 54 52
56 55 59 55 49 53 47 49 55 49 75 80 80 82 83 82 81 82 81 75 65 60 53 50 53 53 50
62 56 58 63 58 54 59 51 52 56 56 75 82 91 93 91 86 91 88 81 73 66 57 53 51 47 51
71 60 58 63 64 64 60 61 57 57 58 73 62 75 101 101 90 95 91 84 78 71 64 59 56 52 52
67 62 59 59 67 72 68 64 65 61 59 65 72 47 73 77 108 99 96 94 86 79 73 68 68 61 59
70 67 62 59 61 70 73 69 63 63 62 60 65 59 42 76 68 97 97 98 92 85 79 77 73 72 68
64 65 64 58 58 63 70 71 66 62 60 60 57 56 55 60 59 68 70 69 84 85 83 74 74 76 78
69 73 71 67 51 54 57 66 69 62 56 57 58 53 48 46 51 78 77 90 62 81 75 71 70 76 75
61 61 60 71 70 58 56 51 54 56 53 52 54 55 51 49 56 55 76 84 98 80 75 73 45 60 62
54 56 58 57 65 71 61 58 45 55 48 47 48 54 51 48 59 61 70 79 85 89 95 61 21 24 48
48 52 53 55 63 67 57 58 41 40 47 45 43 51 64 59 55 59 77 79 86 73 92 87 68 45 32
Wind_Direction_850mb
293 275 258 239 243 236 234 236 236 234 229 228 223 219 222 225 227 228 238 222 225 225 228 225 221 200 178
293 287 269 264 239 240 236 232 235 235 235 235 230 226 225 226 227 233 235 222 225 231 230 233 223 195 184
286 285 279 267 262 241 238 237 233 235 235 235 234 231 231 228 229 232 223 222 232 234 228 232 221 212 195
287 280 277 272 263 260 248 237 236 235 233 235 236 234 234 232 232 231 222 220 229 227 225 227 226 224 203
297 288 276 273 266 258 253 244 241 239 236 236 236 236 232 232 231 229 223 222 227 225 223 231 225 222 207
295 291 287 278 269 260 252 253 251 241 240 237 237 236 236 231 230 227 224 224 226 224 228 232 224 224 219
302 288 282 277 272 266 256 247 247 250 243 242 240 239 237 234 232 227 225 225 225 223 225 231 229 222 215
302 293 280 277 268 264 261 251 246 248 250 239 246 243 239 234 231 227 224 223 225 224 227 230 227 222 217
296 288 282 269 269 263 258 256 249 248 247 242 240 246 245 232 231 225 223 224 224 225 228 230 228 224 219
296 286 277 273 262 262 260 257 253 250 251 247 250 265 254 230 228 224 223 223 224 226 227 227 228 222 224
294 288 281 272 266 258 257 256 254 253 253 254 255 255 252 245 231 219 214 228 223 225 227 227 226 228 232
291 284 277 274 270 263 257 252 253 255 254 255 254 255 255 254 243 230 234 219 227 236 223 226 228 229 233
291 288 279 273 269 269 259 253 251 253 255 254 250 244 247 240 239 232 229 220 223 220 220 224 227 232 236
293 296 290 273 267 263 253 249 248 255 254 255 245 241 238 243 241 245 225 220 220 225 233 227 211 226 235
299 298 293 285 269 262 256 243 245 245 249 248 246 232 231 232 236 230 221 217 218 224 220 202 165 207 229
299 291 286 279 275 254 260 248 251 242 246 254 249 235 231 231 229 231 229 227 212 207 200 218 229 221 209